Location: Congrier
(47.8099°N, 1.1170°W)
Time: 20:58:06
(UTC+00:00)

CZ-6A DEB - Visible Passes

Search period start: 27 February 2024 00:00
Search period end: 08 March 2024 00:00
Orbit: 825 x 865 km, 98.8° (Epoch: 25 February)

Date Brightness Start Highest point End Pass type
(mag) Time Alt. Az. Time Alt. Az. Time Alt. Az.
27 Feb ? 05:55:05 10° NNE 06:00:06 36° E 06:05:03 10° SSE visible
27 Feb ? 19:07:22 10° WSW 19:10:34 15° W 19:13:48 10° NW visible
28 Feb ? 05:41:46 10° NE 05:46:26 28° E 05:51:02 10° SSE visible
28 Feb ? 18:52:50 10° SW 18:56:50 20° W 19:00:50 10° NW visible
29 Feb ? 05:28:33 10° NE 05:32:44 22° E 05:36:51 10° SE visible
29 Feb ? 18:38:34 10° SSW 18:43:07 25° W 18:47:41 10° NW visible
01 Mar ? 05:15:30 10° NE 05:18:59 17° E 05:22:26 10° SE visible
01 Mar ? 18:24:29 10° SSW 18:29:26 32° W 18:34:24 10° NNW visible
02 Mar ? 05:02:48 10° ENE 05:05:13 13° E 05:07:37 10° ESE visible
04 Mar ? 19:29:31 10° W 19:30:06 10° W 19:30:40 10° WNW visible
05 Mar ? 06:00:40 10° NNE 06:05:45 40° E 06:10:47 10° SSE visible
05 Mar ? 19:13:34 10° WSW 19:16:18 14° W 19:19:01 10° WNW visible
06 Mar ? 05:47:17 10° NNE 05:52:04 31° E 05:56:48 10° SSE visible
06 Mar ? 18:58:50 10° SW 19:02:31 18° W 19:06:12 10° NW visible
07 Mar ? 05:34:00 10° NE 05:38:21 24° E 05:42:40 10° SE visible
07 Mar ? 18:44:27 10° SW 18:48:46 23° W 18:53:05 10° NW visible
